OPS 4682 DEB, 38410

Orbit data source: Space-Track

OPS 4682 DEB, 38410 is space debris in LEO originally from a launch on Sat, 03 Apr 1965 UTC launched from the Air Force Western Test Range (AFWTR). Debris objects in space refer to the collection of defunct objects orbiting the Earth. Examples of debris include non-operational satellites, rocket bodies, and fragments generated from explosions, collisions, or faulty payload assembly.

Loading next visibility...
Identifier
38410, 1965-027DP
Orbit
LEO
Country
Flag of USUS
Related business
Manufacturer
Unknown
Mission
Spacecraft
Bus & Motor
Unknown
Mass
Unknown
Launch date (UTC)
1965-04-03 (61 years ago)
Launch vehicle
Unknown
Launch site
Air Force Western Test Range (AFWTR)
Object type
Payload
Rocket body
Debris
Shape & HBR
Unknown shape, 0.1 m
Radar Cross Section
Small (<0.1 m²)

Expand to show TLE details & history
Last TLE update: 2 days ago

TLE from 2 days ago
0 OPS 4682 DEB
1 38410U 65027DP  26034.63572808 -.00000294  00000-0 -10383-2 0  9994
2 38410  90.2458   7.8013 0033991  97.8794 262.6187 12.97516501613687
Epoch: 2026-02-03T15:15Z
TLE epoch observation values (Epoch: 2026-02-03T15:15:26.906Z)
Latitude
-0.00001°
Longitude
5.12537°
Altitude
1,278.141 km
Speed
7.215 km/s
True Right ascension
00h 31m 12s
True Declination
0° 00' 00"
Sunlit
Object was in daylight at epoch
Visualization orbit readout
Latitude
Unknown
Longitude
Unknown
Altitude
Unknown
Speed
Unknown
Apparent Right ascension
Unknown
Apparent Declination
Unknown
Sunlit
N/A
Visualization observer readout
Local Sidereal Time
10:25:07
Azimuth
Unknown
Elevation
Unknown
Doppler factor
Unknown
Orbital elements
Apogee altitude
1,294.957 km
Perigee altitude
1,242.97 km
Semi-major axis
7,647.1 km
Eccentricity
0.0034
Inclination
90.2458°
RAAN
7.8013°
Arg. of periapsis
97.8794°
True anomaly
262.23263°
Mean anomaly
262.6187°
Eccentric anomaly
262.42565°
Mean motion
3.24562 °/min
Orbital period
110.92 mins
BSTAR
-0.0010383
Loading maneuver chart data...
Computing Atmospheric mass density...
Loading historical data...
Loading historical data...
Loading historical data...
Loading historical data...
Loading historical data...
Loading historical data...
Loading historical data...

Documentation

Showing up to 5 results
|